| time (UTC) | temp F | wind direction | speed MPH | gust MPH | rain 1hr in | rain 24hr in | rain mn in | humidity % | barometer mb |
| 20260906205509 | 77 | 173 | 0.0 | 4.0 | 0.00 | 0.00 | 0.00 | 74 | 1019.1 |
| 20260906205008 | 77 | 107 | 0.0 | 6.0 | 0.00 | 0.00 | 0.00 | 74 | 1019.0 |
| 20260906204518 | 76 | 71 | 1.0 | 6.0 | 0.00 | 0.00 | 0.00 | 74 | 1018.9 |
| 20260906204012 | 76 | 129 | 1.0 | 6.0 | 0.00 | 0.00 | 0.00 | 74 | 1018.9 |
| 20260906203513 | 76 | 219 | 2.0 | 6.0 | 0.00 | 0.00 | 0.00 | 73 | 1018.8 |
| 20260906203019 | 77 | 122 | 2.0 | 8.0 | 0.00 | 0.00 | 0.00 | 74 | 1018.9 |
| 20260906202515 | 76 | 140 | 2.0 | 8.0 | 0.00 | 0.00 | 0.00 | 74 | 1018.9 |
| 20260906202015 | 77 | 213 | 2.0 | 6.0 | 0.00 | 0.00 | 0.00 | 73 | 1019.0 |
| 20260906201516 | 77 | 238 | 1.0 | 7.0 | 0.00 | 0.00 | 0.00 | 73 | 1019.1 |
| 20260906201013 | 77 | 107 | 1.0 | 7.0 | 0.00 | 0.00 | 0.00 | 74 | 1019.2 |
| 20260906200518 | 76 | 115 | 2.0 | 8.0 | 0.00 | 0.00 | 0.00 | 74 | 1019.3 |
| 20260906200032 | 77 | 217 | 3.0 | 8.0 | 0.00 | 0.00 | 0.00 | 73 | 1019.4 |
| 20260906195512 | 76 | 127 | 1.0 | 7.0 | 0.00 | 0.00 | 0.00 | 73 | 1019.4 |
| 20260906195015 | 76 | 193 | 2.0 | 7.0 | 0.00 | 0.00 | 0.00 | 73 | 1019.5 |
| 20260906194518 | 76 | 128 | 2.0 | 8.0 | 0.00 | 0.00 | 0.00 | 73 | 1019.5 |
| 20260906194013 | 76 | 105 | 1.0 | 8.0 | 0.00 | 0.00 | 0.00 | 73 | 1019.4 |
| 20260906193512 | 77 | 137 | 2.0 | 8.0 | 0.00 | 0.00 | 0.00 | 73 | 1019.4 |
| 20260906193023 | 77 | 107 | 1.0 | 6.0 | 0.00 | 0.00 | 0.00 | 73 | 1019.4 |
| 20260906192513 | 77 | 130 | 1.0 | 7.0 | 0.00 | 0.00 | 0.00 | 73 | 1019.4 |
| 20260906192012 | 77 | 146 | 2.0 | 8.0 | 0.00 | 0.00 | 0.00 | 72 | 1019.5 |
| 20260906191527 | 77 | 128 | 3.0 | 8.0 | 0.00 | 0.00 | 0.00 | 73 | 1019.4 |
| 20260906191015 | 77 | 107 | 2.0 | 7.0 | 0.00 | 0.00 | 0.00 | 73 | 1019.4 |
| 20260906190518 | 77 | 107 | 2.0 | 10.0 | 0.00 | 0.00 | 0.00 | 73 | 1019.4 |
| 20260906190024 | 77 | 175 | 3.0 | 10.0 | 0.00 | 0.00 | 0.00 | 72 | 1019.5 |
| 20260906185520 | 77 | 132 | 1.0 | 9.0 | 0.00 | 0.00 | 0.00 | 73 | 1019.4 |
| 20260906185019 | 77 | 143 | 2.0 | 9.0 | 0.00 | 0.00 | 0.00 | 72 | 1019.1 |
| 20260906184516 | 77 | 133 | 2.0 | 9.0 | 0.00 | 0.00 | 0.00 | 72 | 1019.1 |
| 20260906184016 | 77 | 139 | 2.0 | 9.0 | 0.00 | 0.00 | 0.00 | 72 | 1018.9 |
| 20260906183516 | 77 | 98 | 4.0 | 8.0 | 0.00 | 0.00 | 0.00 | 71 | 1019.0 |
| 20260906183026 | 78 | 161 | 2.0 | 7.0 | 0.00 | 0.00 | 0.00 | 70 | 1019.1 |
| 20260906182513 | 78 | 261 | 2.0 | 7.0 | 0.00 | 0.00 | 0.00 | 71 | 1019.1 |
| 20260906182016 | 78 | 136 | 3.0 | 9.0 | 0.00 | 0.00 | 0.00 | 70 | 1019.2 |
| 20260906181549 | 78 | 122 | 3.0 | 11.0 | 0.00 | 0.00 | 0.00 | 71 | 1019.4 |
| 20260906181014 | 78 | 98 | 3.0 | 11.0 | 0.00 | 0.00 | 0.00 | 69 | 1019.6 |
| 20260906180517 | 78 | 101 | 4.0 | 11.0 | 0.00 | 0.00 | 0.00 | 69 | 1019.8 |
| 20260906180029 | 78 | 156 | 2.0 | 10.0 | 0.00 | 0.00 | 0.00 | 70 | 1019.8 |
| 20260906175518 | 78 | 124 | 3.0 | 10.0 | 0.00 | 0.00 | 0.00 | 69 | 1019.8 |
| 20260906175011 | 79 | 137 | 3.0 | 8.0 | 0.00 | 0.00 | 0.00 | 68 | 1019.8 |
| 20260906174529 | 79 | 114 | 1.0 | 7.0 | 0.00 | 0.00 | 0.00 | 68 | 1019.7 |
| 20260906174008 | 80 | 112 | 1.0 | 7.0 | 0.00 | 0.00 | 0.00 | 67 | 1019.8 |
| 20260906173508 | 80 | 184 | 2.0 | 7.0 | 0.00 | 0.00 | 0.00 | 68 | 1020.0 |
| 20260906173010 | 79 | 210 | 3.0 | 7.0 | 0.00 | 0.00 | 0.00 | 68 | 1020.0 |
| 20260906172505 | 79 | 130 | 3.0 | 8.0 | 0.00 | 0.00 | 0.00 | 69 | 1020.1 |
| 20260906172009 | 79 | 209 | 2.0 | 8.0 | 0.00 | 0.00 | 0.00 | 70 | 1020.1 |
| 20260906171512 | 78 | 92 | 3.0 | 8.0 | 0.00 | 0.00 | 0.00 | 69 | 1020.0 |
| 20260906171003 | 79 | 133 | 2.0 | 8.0 | 0.00 | 0.00 | 0.00 | 71 | 1020.0 |
| 20260906170506 | 79 | 133 | 3.0 | 7.0 | 0.00 | 0.00 | 0.00 | 70 | 1020.1 |
| 20260906170020 | 79 | 22 | 1.0 | 6.0 | 0.00 | 0.00 | 0.00 | 74 | 1020.2 |
| 20260906165504 | 78 | 136 | 2.0 | 6.0 | 0.00 | 0.00 | 0.00 | 71 | 1020.2 |
| 20260906165005 | 78 | 273 | 1.0 | 7.0 | 0.00 | 0.00 | 0.00 | 72 | 1020.2 |
| 20260906164507 | 78 | 161 | 2.0 | 7.0 | 0.00 | 0.00 | 0.00 | 72 | 1020.1 |
| 20260906164008 | 78 | 330 | 0.0 | 4.0 | 0.00 | 0.00 | 0.00 | 74 | 1020.1 |
| 20260906163504 | 77 | 96 | 2.0 | 6.0 | 0.00 | 0.00 | 0.00 | 73 | 1020.1 |
| 20260906163015 | 76 | 236 | 2.0 | 6.0 | 0.00 | 0.00 | 0.00 | 76 | 1020.2 |
| 20260906162510 | 76 | 194 | 1.0 | 4.0 | 0.00 | 0.00 | 0.00 | 75 | 1020.3 |
| 20260906162008 | 76 | 102 | 1.0 | 4.0 | 0.00 | 0.00 | 0.00 | 77 | 1020.3 |
| 20260906161509 | 75 | 169 | 1.0 | 7.0 | 0.00 | 0.00 | 0.00 | 78 | 1020.1 |
| 20260906161010 | 74 | 256 | 2.0 | 7.0 | 0.00 | 0.00 | 0.00 | 79 | 1020.1 |
| 20260906160511 | 74 | 111 | 1.0 | 6.0 | 0.00 | 0.00 | 0.00 | 79 | 1020.1 |
| 20260906160017 | 74 | 127 | 1.0 | 6.0 | 0.00 | 0.00 | 0.00 | 79 | 1020.1 |
| 20260906155509 | 74 | 105 | 0.0 | 8.0 | 0.00 | 0.00 | 0.00 | 79 | 1020.2 |
| 20260906155012 | 74 | 170 | 2.0 | 8.0 | 0.00 | 0.00 | 0.00 | 79 | 1020.2 |
| 20260906154516 | 74 | 150 | 2.0 | 7.0 | 0.00 | 0.00 | 0.00 | 79 | 1020.4 |
| 20260906154006 | 74 | 112 | 1.0 | 7.0 | 0.00 | 0.00 | 0.00 | 79 | 1020.4 |
| 20260906153506 | 74 | 119 | 2.0 | 7.0 | 0.00 | 0.00 | 0.00 | 79 | 1020.4 |
| 20260906153009 | 74 | 121 | 1.0 | 7.0 | 0.00 | 0.00 | 0.00 | 79 | 1020.4 |
| 20260906152507 | 74 | 115 | 1.0 | 5.0 | 0.00 | 0.00 | 0.00 | 80 | 1020.2 |
| 20260906152007 | 74 | 147 | 0.0 | 5.0 | 0.00 | 0.00 | 0.00 | 81 | 1020.3 |
| 20260906151516 | 73 | 91 | 0.0 | 8.0 | 0.00 | 0.00 | 0.00 | 80 | 1020.3 |
| 20260906151012 | 74 | 109 | 0.0 | 8.0 | 0.00 | 0.00 | 0.00 | 80 | 1020.2 |
| 20260906150506 | 74 | 85 | 3.0 | 6.0 | 0.00 | 0.00 | 0.00 | 80 | 1020.2 |
| 20260906150015 | 74 | 96 | 1.0 | 8.0 | 0.00 | 0.00 | 0.00 | 81 | 1020.2 |
| 20260906145511 | 73 | 125 | 2.0 | 8.0 | 0.00 | 0.00 | 0.00 | 81 | 1020.2 |
| 20260906145012 | 73 | 91 | 2.0 | 6.0 | 0.00 | 0.00 | 0.00 | 82 | 1020.2 |
| 20260906144511 | 72 | 134 | 1.0 | 5.0 | 0.00 | 0.00 | 0.00 | 84 | 1020.2 |
| 20260906144009 | 71 | 115 | 0.0 | 4.0 | 0.00 | 0.00 | 0.00 | 85 | 1020.1 |
| 20260906143510 | 71 | 119 | 2.0 | 8.0 | 0.00 | 0.00 | 0.00 | 85 | 1020.0 |
| 20260906143022 | 71 | 149 | 3.0 | 10.0 | 0.00 | 0.00 | 0.00 | 86 | 1019.9 |
| 20260906142510 | 70 | 239 | 2.0 | 10.0 | 0.00 | 0.00 | 0.00 | 86 | 1019.9 |
| 20260906142008 | 70 | 164 | 2.0 | 8.0 | 0.00 | 0.00 | 0.00 | 86 | 1019.9 |
| 20260906141511 | 70 | 158 | 1.0 | 8.0 | 0.00 | 0.00 | 0.00 | 86 | 1020.0 |
| 20260906141010 | 70 | 157 | 1.0 | 7.0 | 0.00 | 0.00 | 0.00 | 87 | 1020.1 |
| 20260906140511 | 70 | 146 | 1.0 | 6.0 | 0.00 | 0.00 | 0.00 | 87 | 1020.0 |
| 20260906140021 | 69 | 115 | 1.0 | 6.0 | 0.00 | 0.00 | 0.00 | 88 | 1020.0 |
| 20260906135512 | 69 | 159 | 2.0 | 7.0 | 0.00 | 0.00 | 0.00 | 88 | 1020.0 |
| 20260906135010 | 69 | 125 | 2.0 | 7.0 | 0.00 | 0.00 | 0.00 | 89 | 1020.1 |
| 20260906134520 | 69 | 150 | 2.0 | 8.0 | 0.00 | 0.00 | 0.00 | 89 | 1020.1 |
| 20260906134012 | 69 | 134 | 1.0 | 8.0 | 0.00 | 0.00 | 0.00 | 89 | 1020.1 |
| 20260906133507 | 69 | 121 | 2.0 | 10.0 | 0.00 | 0.00 | 0.00 | 90 | 1020.1 |
| 20260906133022 | 69 | 115 | 2.0 | 10.0 | 0.00 | 0.00 | 0.00 | 89 | 1020.0 |
| 20260906132514 | 69 | 139 | 1.0 | 5.0 | 0.00 | 0.00 | 0.00 | 90 | 1020.1 |
| 20260906132012 | 69 | 172 | 1.0 | 5.0 | 0.00 | 0.00 | 0.00 | 90 | 1020.1 |
| 20260906131513 | 68 | 141 | 1.0 | 4.0 | 0.00 | 0.00 | 0.00 | 90 | 1020.0 |
| 20260906131015 | 69 | 126 | 0.0 | 3.0 | 0.00 | 0.00 | 0.00 | 91 | 1019.9 |
| 20260906130508 | 68 | 123 | 0.0 | 3.0 | 0.00 | 0.00 | 0.00 | 91 | 1019.9 |
| 20260906130014 | 68 | 169 | 0.0 | 3.0 | 0.00 | 0.00 | 0.00 | 91 | 1019.8 |
| 20260906125510 | 68 | 139 | 0.0 | 4.0 | 0.00 | 0.00 | 0.00 | 91 | 1019.9 |
| 20260906125011 | 68 | 134 | 1.0 | 4.0 | 0.00 | 0.00 | 0.00 | 91 | 1019.9 |
| 20260906124517 | 68 | 93 | 0.0 | 3.0 | 0.00 | 0.00 | 0.00 | 91 | 1019.8 |
| 20260906124011 | 68 | 136 | 0.0 | 4.0 | 0.00 | 0.00 | 0.00 | 91 | 1019.7 |
| 20260906123513 | 68 | 125 | 1.0 | 4.0 | 0.00 | 0.00 | 0.00 | 91 | 1019.7 |
| 20260906123033 | 68 | 121 | 1.0 | 4.0 | 0.00 | 0.00 | 0.00 | 91 | 1019.7 |
| 20260906122513 | 68 | 90 | 1.0 | 4.0 | 0.00 | 0.00 | 0.00 | 92 | 1019.6 |
| 20260906122012 | 68 | 121 | 0.0 | 5.0 | 0.00 | 0.00 | 0.00 | 91 | 1019.6 |
| 20260906121529 | 68 | 130 | 1.0 | 5.0 | 0.00 | 0.00 | 0.00 | 91 | 1019.6 |
| 20260906121015 | 68 | 131 | 0.0 | 5.0 | 0.00 | 0.00 | 0.00 | 91 | 1019.5 |
| 20260906120510 | 68 | 140 | 1.0 | 5.0 | 0.00 | 0.00 | 0.00 | 91 | 1019.5 |
| 20260906120027 | 68 | 128 | 1.0 | 6.0 | 0.00 | 0.00 | 0.00 | 91 | 1019.5 |
| 20260906115515 | 68 | 107 | 2.0 | 7.0 | 0.00 | 0.00 | 0.00 | 91 | 1019.5 |
| 20260906115008 | 68 | 232 | 2.0 | 6.0 | 0.00 | 0.00 | 0.00 | 91 | 1019.4 |
| 20260906114533 | 68 | 148 | 0.0 | 4.0 | 0.00 | 0.00 | 0.00 | 91 | 1019.3 |
| 20260906114004 | 68 | 153 | 1.0 | 4.0 | 0.00 | 0.00 | 0.00 | 91 | 1019.3 |
| 20260906113508 | 68 | 153 | 0.0 | 2.0 | 0.00 | 0.00 | 0.00 | 91 | 1019.3 |
| 20260906113005 | 68 | 122 | 0.0 | 4.0 | 0.00 | 0.00 | 0.00 | 91 | 1019.3 |
| 20260906112503 | 68 | 157 | 0.0 | 4.0 | 0.00 | 0.00 | 0.00 | 91 | 1019.4 |
| 20260906112003 | 68 | 157 | 1.0 | 5.0 | 0.00 | 0.00 | 0.00 | 91 | 1019.3 |
| 20260906111508 | 68 | 128 | 1.0 | 5.0 | 0.00 | 0.00 | 0.00 | 91 | 1019.4 |
| 20260906111002 | 68 | 91 | 1.0 | 5.0 | 0.00 | 0.00 | 0.00 | 91 | 1019.4 |
| 20260906110507 | 68 | 134 | 1.0 | 7.0 | 0.00 | 0.00 | 0.00 | 91 | 1019.3 |
| 20260906110009 | 68 | 123 | 1.0 | 7.0 | 0.00 | 0.00 | 0.00 | 91 | 1019.3 |
| 20260906105509 | 68 | 134 | 2.0 | 6.0 | 0.00 | 0.00 | 0.00 | 91 | 1019.1 |
| 20260906105002 | 68 | 105 | 0.0 | 3.0 | 0.00 | 0.00 | 0.00 | 91 | 1019.0 |
| 20260906104510 | 68 | 123 | 0.0 | 1.0 | 0.00 | 0.00 | 0.00 | 91 | 1018.9 |
| 20260906104008 | 68 | 132 | 0.0 | 3.0 | 0.00 | 0.00 | 0.00 | 91 | 1018.8 |
| 20260906103511 | 68 | 132 | 0.0 | 4.0 | 0.00 | 0.00 | 0.00 | 91 | 1018.6 |
| 20260906103004 | 68 | 106 | 0.0 | 4.0 | 0.00 | 0.00 | 0.00 | 91 | 1018.5 |
| 20260906102508 | 68 | 161 | 0.0 | 4.0 | 0.00 | 0.00 | 0.00 | 90 | 1018.4 |
| 20260906102009 | 68 | 153 | 1.0 | 3.0 | 0.00 | 0.00 | 0.00 | 90 | 1018.4 |
| 20260906101505 | 68 | 148 | 1.0 | 4.0 | 0.00 | 0.00 | 0.00 | 90 | 1018.4 |
| 20260906101004 | 68 | 114 | 1.0 | 4.0 | 0.00 | 0.00 | 0.00 | 90 | 1018.4 |
| 20260906100507 | 68 | 146 | 1.0 | 4.0 | 0.00 | 0.00 | 0.00 | 90 | 1018.4 |
| 20260906100006 | 68 | 144 | 0.0 | 4.0 | 0.00 | 0.00 | 0.00 | 90 | 1018.4 |
| 20260906095505 | 69 | 129 | 0.0 | 3.0 | 0.00 | 0.00 | 0.00 | 90 | 1018.3 |
| 20260906095004 | 69 | 132 | 1.0 | 3.0 | 0.00 | 0.00 | 0.00 | 90 | 1018.3 |
| 20260906094510 | 69 | 133 | 0.0 | 4.0 | 0.00 | 0.00 | 0.00 | 90 | 1018.3 |
| 20260906094007 | 69 | 134 | 1.0 | 5.0 | 0.00 | 0.00 | 0.00 | 90 | 1018.3 |
| 20260906093504 | 69 | 112 | 0.0 | 5.0 | 0.00 | 0.00 | 0.00 | 90 | 1018.3 |
| 20260906093013 | 69 | 128 | 0.0 | 5.0 | 0.00 | 0.00 | 0.00 | 90 | 1018.2 |
| 20260906092511 | 69 | 127 | 1.0 | 5.0 | 0.00 | 0.00 | 0.00 | 90 | 1018.1 |
| 20260906092004 | 69 | 148 | 0.0 | 4.0 | 0.00 | 0.00 | 0.00 | 90 | 1017.9 |
| 20260906091516 | 69 | 150 | 0.0 | 7.0 | 0.00 | 0.00 | 0.00 | 89 | 1017.8 |
| 20260906091011 | 69 | 168 | 1.0 | 7.0 | 0.00 | 0.00 | 0.00 | 89 | 1017.8 |
| 20260906090515 | 69 | 150 | 0.0 | 5.0 | 0.00 | 0.00 | 0.00 | 89 | 1017.8 |
| 20260906090007 | 69 | 165 | 1.0 | 5.0 | 0.00 | 0.00 | 0.00 | 89 | 1017.8 |
| 20260906085503 | 69 | 106 | 1.0 | 4.0 | 0.00 | 0.00 | 0.00 | 89 | 1017.7 |
| 20260906085004 | 69 | 136 | 0.0 | 4.0 | 0.00 | 0.00 | 0.00 | 89 | 1017.6 |
| 20260906084509 | 69 | 141 | 1.0 | 4.0 | 0.00 | 0.00 | 0.00 | 89 | 1017.7 |
| 20260906084008 | 69 | 119 | 0.0 | 4.0 | 0.00 | 0.00 | 0.00 | 89 | 1017.8 |
| 20260906083508 | 69 | 67 | 0.0 | 6.0 | 0.00 | 0.00 | 0.00 | 89 | 1017.8 |
| 20260906083012 | 69 | 111 | 1.0 | 6.0 | 0.00 | 0.00 | 0.00 | 89 | 1017.7 |
| 20260906082504 | 69 | 153 | 1.0 | 5.0 | 0.00 | 0.00 | 0.00 | 89 | 1017.8 |
| 20260906082011 | 69 | 132 | 1.0 | 5.0 | 0.00 | 0.00 | 0.00 | 89 | 1017.9 |
| 20260906081526 | 69 | 120 | 1.0 | 5.0 | 0.00 | 0.00 | 0.00 | 89 | 1018.0 |
| 20260906081012 | 69 | 144 | 1.0 | 4.0 | 0.00 | 0.00 | 0.00 | 89 | 1018.2 |
| 20260906080507 | 69 | 143 | 1.0 | 4.0 | 0.00 | 0.00 | 0.00 | 89 | 1018.2 |
| 20260906080021 | 69 | 130 | 0.0 | 2.0 | 0.00 | 0.00 | 0.00 | 89 | 1018.2 |
| 20260906075513 | 69 | 109 | 0.0 | 3.0 | 0.00 | 0.00 | 0.00 | 89 | 1018.3 |
| 20260906075002 | 69 | 109 | 0.0 | 3.0 | 0.00 | 0.00 | 0.00 | 89 | 1018.3 |
| 20260906074514 | 69 | 168 | 0.0 | 3.0 | 0.00 | 0.00 | 0.00 | 90 | 1018.2 |
| 20260906074009 | 69 | 134 | 0.0 | 3.0 | 0.00 | 0.00 | 0.00 | 90 | 1018.2 |
| 20260906073505 | 69 | 134 | 0.0 | 3.0 | 0.00 | 0.00 | 0.00 | 90 | 1018.2 |
| 20260906073010 | 69 | 132 | 1.0 | 6.0 | 0.00 | 0.00 | 0.00 | 90 | 1018.2 |
| 20260906072510 | 69 | 123 | 1.0 | 6.0 | 0.00 | 0.00 | 0.00 | 90 | 1018.1 |
| 20260906072010 | 69 | 132 | 1.0 | 4.0 | 0.00 | 0.00 | 0.00 | 90 | 1018.2 |
| 20260906071518 | 69 | 141 | 1.0 | 4.0 | 0.00 | 0.00 | 0.00 | 90 | 1018.3 |
| 20260906071022 | 69 | 134 | 1.0 | 3.0 | 0.00 | 0.00 | 0.00 | 90 | 1018.3 |
| 20260906070514 | 69 | 137 | 0.0 | 5.0 | 0.00 | 0.00 | 0.00 | 90 | 1018.3 |
| 20260906070024 | 69 | 141 | 1.0 | 5.0 | 0.00 | 0.00 | 0.00 | 90 | 1018.2 |
| 20260906065507 | 69 | 155 | 0.0 | 1.0 | 0.00 | 0.00 | 0.00 | 90 | 1018.3 |
| 20260906065009 | 69 | 140 | 0.0 | 2.0 | 0.00 | 0.00 | 0.00 | 90 | 1018.3 |
| 20260906064530 | 69 | 140 | 1.0 | 2.0 | 0.00 | 0.00 | 0.00 | 90 | 1018.3 |
| 20260906064015 | 69 | 153 | 0.0 | 1.0 | 0.00 | 0.00 | 0.00 | 90 | 1018.3 |
| 20260906063508 | 69 | 153 | 0.0 | 1.0 | 0.00 | 0.00 | 0.00 | 90 | 1018.5 |
| 20260906063024 | 69 | 121 | 0.0 | 1.0 | 0.00 | 0.00 | 0.00 | 90 | 1018.5 |
| 20260906062507 | 69 | 117 | 0.0 | 1.0 | 0.00 | 0.00 | 0.00 | 90 | 1018.5 |
| 20260906062007 | 69 | 117 | 0.0 | 1.0 | 0.00 | 0.00 | 0.00 | 90 | 1018.5 |
| 20260906061512 | 69 | 117 | 0.0 | 1.0 | 0.00 | 0.00 | 0.00 | 89 | 1018.5 |
| 20260906061009 | 69 | 117 | 0.0 | 1.0 | 0.00 | 0.00 | 0.00 | 89 | 1018.5 |
| 20260906060511 | 69 | 117 | 0.0 | 1.0 | 0.00 | 0.00 | 0.00 | 89 | 1018.5 |
| 20260906060015 | 69 | 117 | 0.0 | 1.0 | 0.00 | 0.00 | 0.00 | 89 | 1018.5 |
| 20260906055513 | 69 | 117 | 0.0 | 1.0 | 0.00 | 0.00 | 0.00 | 89 | 1018.6 |
| 20260906055018 | 69 | 117 | 0.0 | 1.0 | 0.00 | 0.00 | 0.00 | 89 | 1018.6 |
| 20260906054528 | 69 | 117 | 0.0 | 1.0 | 0.00 | 0.00 | 0.00 | 89 | 1018.6 |
| 20260906054012 | 70 | 117 | 0.0 | 0.0 | 0.00 | 0.00 | 0.00 | 89 | 1018.7 |
| 20260906053520 | 70 | 117 | 0.0 | 0.0 | 0.00 | 0.00 | 0.00 | 89 | 1018.7 |
| 20260906053032 | 70 | 117 | 0.0 | 0.0 | 0.00 | 0.00 | 0.00 | 88 | 1018.7 |
| 20260906052508 | 70 | 117 | 0.0 | 0.0 | 0.00 | 0.00 | 0.00 | 88 | 1018.6 |
| 20260906052012 | 70 | 117 | 0.0 | 0.0 | 0.00 | 0.00 | 0.00 | 88 | 1018.7 |
| 20260906051530 | 70 | 117 | 0.0 | 0.0 | 0.00 | 0.00 | 0.00 | 88 | 1018.8 |
| 20260906051018 | 70 | 117 | 0.0 | 0.0 | 0.00 | 0.00 | 0.00 | 88 | 1018.7 |
| 20260906050510 | 70 | 117 | 0.0 | 0.0 | 0.00 | 0.00 | 0.00 | 88 | 1018.6 |
| 20260906050017 | 70 | 117 | 0.0 | 0.0 | 0.00 | 0.00 | 0.00 | 88 | 1018.7 |
| 20260906045516 | 71 | 117 | 0.0 | 0.0 | 0.00 | 0.00 | 0.00 | 88 | 1018.6 |
| 20260906045012 | 71 | 117 | 0.0 | 0.0 | 0.00 | 0.00 | 0.00 | 88 | 1018.5 |
| 20260906044520 | 71 | 117 | 0.0 | 0.0 | 0.00 | 0.00 | 0.00 | 88 | 1018.5 |
| 20260906044016 | 71 | 117 | 0.0 | 0.0 | 0.00 | 0.00 | 0.00 | 88 | 1018.4 |
| 20260906043518 | 71 | 117 | 0.0 | 0.0 | 0.00 | 0.00 | 0.00 | 88 | 1018.5 |
| 20260906043026 | 71 | 117 | 0.0 | 0.0 | 0.00 | 0.00 | 0.00 | 88 | 1018.6 |
| 20260906042515 | 71 | 117 | 0.0 | 0.0 | 0.00 | 0.00 | 0.00 | 87 | 1018.6 |
| 20260906042018 | 71 | 117 | 0.0 | 0.0 | 0.00 | 0.00 | 0.00 | 87 | 1018.5 |
| 20260906041536 | 71 | 117 | 0.0 | 0.0 | 0.00 | 0.00 | 0.00 | 88 | 1018.4 |
| 20260906041007 | 71 | 117 | 0.0 | 0.0 | 0.00 | 0.00 | 0.00 | 88 | 1018.4 |
| 20260906040507 | 71 | 117 | 0.0 | 0.0 | 0.00 | 0.00 | 0.00 | 88 | 1018.3 |
| 20260906040025 | 71 | 117 | 0.0 | 0.0 | 0.00 | 0.00 | 0.00 | 87 | 1018.3 |
| 20260906035508 | 72 | 117 | 0.0 | 0.0 | 0.00 | 0.00 | 0.00 | 87 | 1018.4 |
| 20260906035010 | 72 | 117 | 0.0 | 0.0 | 0.00 | 0.00 | 0.00 | 87 | 1018.4 |
| 20260906034504 | 72 | 117 | 0.0 | 0.0 | 0.00 | 0.00 | 0.00 | 87 | 1018.4 |
| 20260906034008 | 72 | 117 | 0.0 | 0.0 | 0.00 | 0.00 | 0.00 | 87 | 1018.4 |
| 20260906033513 | 72 | 117 | 0.0 | 0.0 | 0.00 | 0.00 | 0.00 | 87 | 1018.4 |
| 20260906033026 | 72 | 117 | 0.0 | 0.0 | 0.00 | 0.00 | 0.00 | 87 | 1018.4 |
| 20260906032505 | 72 | 117 | 0.0 | 0.0 | 0.00 | 0.00 | 0.00 | 87 | 1018.4 |
| 20260906032013 | 72 | 117 | 0.0 | 0.0 | 0.00 | 0.00 | 0.00 | 87 | 1018.4 |
| 20260906031544 | 72 | 117 | 0.0 | 0.0 | 0.00 | 0.00 | 0.00 | 87 | 1018.3 |
| 20260906031016 | 72 | 117 | 0.0 | 0.0 | 0.00 | 0.00 | 0.00 | 87 | 1018.3 |
| 20260906030511 | 72 | 117 | 0.0 | 0.0 | 0.00 | 0.00 | 0.00 | 87 | 1018.2 |
| 20260906030008 | 72 | 117 | 0.0 | 0.0 | 0.00 | 0.00 | 0.00 | 87 | 1018.1 |
| 20260906025510 | 72 | 117 | 0.0 | 0.0 | 0.00 | 0.00 | 0.00 | 87 | 1018.2 |
| 20260906025006 | 72 | 117 | 0.0 | 0.0 | 0.00 | 0.00 | 0.00 | 87 | 1018.2 |
| 20260906024516 | 72 | 117 | 0.0 | 0.0 | 0.00 | 0.00 | 0.00 | 87 | 1018.1 |
| 20260906024010 | 72 | 117 | 0.0 | 0.0 | 0.00 | 0.00 | 0.00 | 86 | 1018.0 |
| 20260906023512 | 73 | 117 | 0.0 | 0.0 | 0.00 | 0.00 | 0.00 | 86 | 1018.0 |
| 20260906023012 | 73 | 117 | 0.0 | 1.0 | 0.00 | 0.00 | 0.00 | 86 | 1017.9 |
| 20260906022517 | 73 | 117 | 0.0 | 1.0 | 0.00 | 0.00 | 0.00 | 86 | 1017.8 |
| 20260906022014 | 73 | 117 | 0.0 | 1.0 | 0.00 | 0.00 | 0.00 | 86 | 1017.7 |
| 20260906021510 | 73 | 117 | 0.0 | 1.0 | 0.00 | 0.00 | 0.00 | 86 | 1017.6 |
| 20260906021009 | 73 | 117 | 0.0 | 1.0 | 0.00 | 0.00 | 0.00 | 86 | 1017.5 |
| 20260906020514 | 73 | 117 | 0.0 | 1.0 | 0.00 | 0.00 | 0.00 | 86 | 1017.4 |
| 20260906020037 | 73 | 117 | 0.0 | 1.0 | 0.00 | 0.00 | 0.00 | 86 | 1017.4 |
| 20260906015509 | 73 | 117 | 0.0 | 2.0 | 0.00 | 0.00 | 0.00 | 86 | 1017.3 |
| 20260906015013 | 73 | 117 | 0.0 | 2.0 | 0.00 | 0.00 | 0.00 | 86 | 1017.3 |
| 20260906014516 | 73 | 117 | 0.0 | 1.0 | 0.00 | 0.00 | 0.00 | 85 | 1017.2 |
| 20260906014007 | 73 | 117 | 0.0 | 0.0 | 0.00 | 0.00 | 0.00 | 85 | 1017.2 |
| 20260906013510 | 73 | 117 | 0.0 | 0.0 | 0.00 | 0.00 | 0.00 | 85 | 1017.1 |
| 20260906013016 | 74 | 117 | 0.0 | 1.0 | 0.00 | 0.00 | 0.00 | 85 | 1017.1 |
| 20260906012510 | 74 | 117 | 0.0 | 1.0 | 0.00 | 0.00 | 0.00 | 85 | 1017.0 |
| 20260906012013 | 74 | 117 | 0.0 | 2.0 | 0.00 | 0.00 | 0.00 | 85 | 1016.8 |
| 20260906011523 | 74 | 121 | 1.0 | 2.0 | 0.00 | 0.00 | 0.00 | 85 | 1016.7 |
| 20260906011016 | 74 | 146 | 0.0 | 0.0 | 0.00 | 0.00 | 0.00 | 85 | 1016.7 |
| 20260906010515 | 74 | 146 | 0.0 | 1.0 | 0.00 | 0.00 | 0.00 | 85 | 1016.7 |
| 20260906010016 | 74 | 146 | 0.0 | 2.0 | 0.00 | 0.00 | 0.00 | 85 | 1016.6 |
| 20260906005516 | 74 | 146 | 0.0 | 2.0 | 0.00 | 0.00 | 0.00 | 84 | 1016.6 |
| 20260906005017 | 74 | 51 | 0.0 | 1.0 | 0.00 | 0.00 | 0.00 | 84 | 1016.6 |
| 20260906004515 | 74 | 51 | 0.0 | 1.0 | 0.00 | 0.00 | 0.00 | 84 | 1016.6 |
| 20260906004011 | 74 | 51 | 0.0 | 2.0 | 0.00 | 0.00 | 0.00 | 83 | 1016.5 |
| 20260906003517 | 75 | 107 | 0.0 | 2.0 | 0.00 | 0.00 | 0.00 | 83 | 1016.4 |
| 20260906003011 | 75 | 157 | 0.0 | 1.0 | 0.00 | 0.00 | 0.00 | 82 | 1016.3 |
| 20260906002511 | 75 | 157 | 0.0 | 1.0 | 0.00 | 0.00 | 0.00 | 82 | 1016.4 |
| 20260906002010 | 75 | 157 | 0.0 | 3.0 | 0.00 | 0.00 | 0.00 | 81 | 1016.5 |
| 20260906001518 | 76 | 157 | 0.0 | 3.0 | 0.00 | 0.00 | 0.00 | 81 | 1016.5 |
| 20260906001010 | 76 | 165 | 0.0 | 1.0 | 0.00 | 0.00 | 0.00 | 81 | 1016.5 |
| 20260906000513 | 76 | 165 | 0.0 | 1.0 | 0.00 | 0.00 | 0.00 | 80 | 1016.5 |
| 20260906000027 | 76 | 165 | 0.0 | 1.0 | 0.00 | 0.00 | 0.00 | 80 | 1016.6 |
| 20260905235515 | 76 | 165 | 0.0 | 2.0 | 0.00 | 0.00 | 0.00 | 79 | 1016.5 |
| 20260905235014 | 77 | 165 | 0.0 | 3.0 | 0.00 | 0.00 | 0.00 | 79 | 1016.5 |
| 20260905234525 | 77 | 53 | 0.0 | 3.0 | 0.00 | 0.00 | 0.00 | 79 | 1016.4 |
| 20260905234015 | 77 | 132 | 0.0 | 3.0 | 0.00 | 0.00 | 0.00 | 79 | 1016.4 |
| 20260905233515 | 77 | 128 | 0.0 | 4.0 | 0.00 | 0.00 | 0.00 | 79 | 1016.3 |
| 20260905233022 | 77 | 117 | 0.0 | 4.0 | 0.00 | 0.00 | 0.00 | 78 | 1016.4 |
| 20260905232517 | 77 | 92 | 1.0 | 4.0 | 0.00 | 0.00 | 0.00 | 78 | 1016.3 |
| 20260905232016 | 77 | 64 | 0.0 | 3.0 | 0.00 | 0.00 | 0.00 | 78 | 1016.3 |
| 20260905231527 | 77 | 136 | 0.0 | 2.0 | 0.00 | 0.00 | 0.00 | 78 | 1016.2 |
| 20260905231016 | 77 | 115 | 0.0 | 3.0 | 0.00 | 0.00 | 0.00 | 78 | 1016.2 |
| 20260905230513 | 77 | 109 | 0.0 | 3.0 | 0.00 | 0.00 | 0.00 | 78 | 1016.2 |
| 20260905230020 | 77 | 84 | 0.0 | 3.0 | 0.00 | 0.00 | 0.00 | 78 | 1016.1 |
| 20260905225514 | 77 | 137 | 1.0 | 6.0 | 0.00 | 0.00 | 0.00 | 78 | 1016.0 |
| 20260905225014 | 77 | 132 | 0.0 | 6.0 | 0.00 | 0.00 | 0.00 | 78 | 1016.0 |
| 20260905224526 | 77 | 55 | 0.0 | 5.0 | 0.00 | 0.00 | 0.00 | 78 | 1015.8 |
| 20260905224014 | 77 | 128 | 1.0 | 5.0 | 0.00 | 0.00 | 0.00 | 78 | 1015.8 |
| 20260905223514 | 77 | 44 | 0.0 | 5.0 | 0.00 | 0.00 | 0.00 | 78 | 1015.8 |
| 20260905223031 | 77 | 107 | 1.0 | 5.0 | 0.00 | 0.00 | 0.00 | 78 | 1015.8 |
| 20260905222518 | 77 | 82 | 0.0 | 6.0 | 0.00 | 0.00 | 0.00 | 78 | 1015.8 |
| 20260905222011 | 78 | 130 | 1.0 | 7.0 | 0.00 | 0.00 | 0.00 | 78 | 1015.8 |
| 20260905221529 | 78 | 159 | 1.0 | 7.0 | 0.00 | 0.00 | 0.00 | 77 | 1015.8 |
| 20260905221018 | 78 | 129 | 1.0 | 6.0 | 0.00 | 0.00 | 0.00 | 77 | 1015.9 |
| 20260905220516 | 78 | 45 | 1.0 | 4.0 | 0.00 | 0.00 | 0.00 | 77 | 1015.8 |
| 20260905220018 | 78 | 69 | 2.0 | 4.0 | 0.00 | 0.00 | 0.00 | 77 | 1015.8 |
| 20260905215512 | 78 | 82 | 1.0 | 3.0 | 0.00 | 0.00 | 0.00 | 78 | 1015.8 |
| 20260905215008 | 78 | 118 | 0.0 | 3.0 | 0.00 | 0.00 | 0.00 | 78 | 1015.9 |
| 20260905214523 | 78 | 140 | 0.0 | 4.0 | 0.00 | 0.00 | 0.00 | 78 | 1016.0 |
| 20260905214015 | 78 | 148 | 1.0 | 4.0 | 0.00 | 0.00 | 0.00 | 78 | 1015.9 |
| 20260905213509 | 78 | 98 | 0.0 | 3.0 | 0.00 | 0.00 | 0.00 | 79 | 1015.9 |
| 20260905213018 | 78 | 28 | 1.0 | 3.0 | 0.00 | 0.00 | 0.00 | 78 | 1015.9 |
| 20260905212515 | 78 | 69 | 0.0 | 3.0 | 0.00 | 0.00 | 0.00 | 78 | 1016.2 |
| 20260905212017 | 78 | 146 | 1.0 | 3.0 | 0.00 | 0.00 | 0.00 | 78 | 1016.2 |
| 20260905211515 | 78 | 82 | 0.0 | 5.0 | 0.00 | 0.00 | 0.00 | 78 | 1016.2 |
| 20260905211012 | 78 | 148 | 0.0 | 5.0 | 0.00 | 0.00 | 0.00 | 77 | 1016.1 |
| 20260905210509 | 79 | 82 | 0.0 | 4.0 | 0.00 | 0.00 | 0.00 | 77 | 1016.1 |
| 20260905210015 | 79 | 105 | 1.0 | 5.0 | 0.00 | 0.00 | 0.00 | 77 | 1016.2 |